Location: Cossonay
(46.5833°N, 6.4167°E)
Time: 00:56:59
(UTC+00:00)

STARLINK-64 - Pass Details

Date: 07 June 2020
Orbit: 445 x 456 km, 53.0° (Epoch: 15 July)

Event Time Altitude Azimuth Distance (km) Brightness Sun altitude
Exits shadow 01:17:10 42° 216° (SW) 655 3.5 -16.8°
Maximum altitude 01:18:12 70° 147° (SSE) 488 3.2 -16.7°
Drops below altitude 10° 01:21:47 10° 63° (ENE) 1,599 6.8 -16.4°
Sets 01:23:56 0° 61° (ENE) 2,477 7.9 -16.3°
